Location: Huberhof
(49.2050°N, 7.4980°E)
Time: 04:27:13
(UTC+00:00)

USA 306 - Pass Details

Date: 29 October 2020
Orbit: 569 x 577 km, 54.0° (Epoch: 22 November)

Event Time Altitude Azimuth Distance (km) Brightness Sun altitude
Rises 17:55:51 0° 296° (WNW) 2,787 7.5 -17.2°
Reaches altitude 10° 17:58:07 10° 293° (WNW) 1,885 6.6 -17.6°
Maximum altitude 18:02:21 61° 214° (SW) 653 3.3 -18.3°
Enters shadow 18:04:26 28° 143° (SE) 1,087 4.0 -18.6°
